Details From LGAV - Athens Intl Airport Elefterios Venizel
To LICC - Catania Fontanarossa
Flight Number -
Tags Generated
Created
Modified
Stats Distance 422 nm / 782 km
Max Altitude 0 ft / 0 m
Waypoints 3
Social Downloads 1
Likes 0
Share VATSIM

Download

Looking for another format? Having issues loading an existing format? Contact us
Advertisement - Login to hide

Notes

Generated

Route

LGAV R2180 LICC

ID Type Via Altitude Latitude Longitude Leg Dist Tot Dist Heading (true) Name
O LGAV APT - 0 ft / 0 m 37.92101˚ 23.91920˚ - 0 nm - -
R2180 FIX - 0 ft / 0 m 37.46572˚ 15.05376˚ 422 nm 422 nm 269° / 264° -
O LICC APT - 0 ft / 0 m 37.46563˚ 15.05269˚ 0 nm 422 nm 264° / 264° -

Altitude Profile

Advertisement - Login to hide

Weather


0- 5 10 15 20 25 30 35+ Temperature / ° C

Clouds and Precipitation
Forecast for 2017-10-23 12:00 UTC. Updated 21 minutes ago

Ground ~20,000 ft ~40,000 ft Winds

LGAV

Details ICAO LGAV (ATH)
Name Athens Intl Airport Elefterios Venizel
Region Greece
Timezone Europe/Athens (UTC+3.0)
Stats Elevation 308 ft / 94 m (AMSL)
Location 37.936357° 23.944470°
Runways 2
Magnetic Variation 4.470° E

METAR

LGAV 230720Z VRB02KT CAVOK 22/13 Q1009 NOSIG

Decode

TAF

TAF TAF LGAV 230500Z 2306/2406 23005KT 9999 FEW025 BECMG 2310/2312 19015KT FEW020 SCT070 TEMPO 2313/2318 22015G25KT PROB30 TEMPO 2315/2321 5000 RA SCT018 BKN070 PROB30 TEMPO 2315/2321 3000 TSRA FEW010 FEW018CB SCT020 BKN070 BECMG 2319/2321 24008KT BECMG 2401/2403 FEW018

Decode

Departure Runways

ID Width Length Bearing (true) Bearing (mag) Surface Threshold Offset Overrun Length
03L 148 ft / 45 m 12,474 ft / 3,802 m 36.51° 32.04° Asphalt 984 ft / 300 m 393 ft / 120 m
03R 148 ft / 45 m 13,131 ft / 4,002 m 36.52° 32.05° Asphalt 984 ft / 300 m 393 ft / 120 m
21L 148 ft / 45 m 13,131 ft / 4,002 m 216.54° 212.07° Asphalt 984 ft / 300 m 393 ft / 120 m
21R 148 ft / 45 m 12,474 ft / 3,802 m 216.53° 212.06° Asphalt 984 ft / 300 m 393 ft / 120 m

LICC

Details ICAO LICC (CTA)
Name Catania Fontanarossa
Region Italy
Timezone Europe/Rome (UTC+2.0)
Stats Elevation 39 ft / 12 m (AMSL)
Location 37.466779° 15.066401°
Runways 1
Magnetic Variation 3.202° E

METAR

LICC 230720Z 26014KT CAVOK 20/12 Q1011

Decode

TAF

TAF LICC 230500Z 2306/2406 26013KT 9999 SCT030

Decode

Destination Runways

ID Width Length Bearing (true) Bearing (mag) Surface Threshold Offset Overrun Length
08 148 ft / 45 m 7,985 ft / 2,434 m 83.94° 80.74° Asphalt 312 ft / 95 m 0 ft / 0 m
26 148 ft / 45 m 7,985 ft / 2,434 m 263.95° 260.75° Asphalt 279 ft / 85 m 0 ft / 0 m

Approach Navaids

Runway Type Ident Frequency Range Bearing (true) Bearing (mag) Slope Elevation
08 Localiser CTN 109.90 MHz 18 nm / 33 km 83.98° 80.78° - 25 ft / 8 m (AMSL)
08 Glidescope CTN 109.90 MHz 10 nm / 19 km 83.94° 80.74° 3.00° 25 ft / 8 m (AMSL)
08 DME CTN 109.90 MHz 18 nm / 33 km - - - 45 ft / 14 m (AMSL)

Popular Alternatives